Flag for Canada Weather past 2 weeks in Waterloo, Ontario, Canada

Now
48 °F

Clear.


Feels Like: 46 °F
Forecast: 49 / 69 °F
Wind: 6 mph from Northwest

Location: Waterloo Well

Current Time: Aug 28, 2014 at 6:17:03 AM

Latest Report: Aug 28, 2014 at 5:00 AM


Visibility: 9 mi

Pressure: 30.08 "Hg

Humidity: 94%

Dew point: 46 °F

Location of WaterlooLocation

Historic Weather in Waterloo — Graph

°F

Waterloo temperature yesterday

Maximum temperature yesterday: 72 °F (at 12:00 AM)
Minimum temperature yesterday: 54 °F (at 10:00 PM)
Average temperature yesterday: 64 °F

Past Weeks' High & Low Weather Summary

 TemperatureHumidityPressure
High84 °F (Aug 26, 2:00 PM)100% (Aug 17, 5:00 AM)30.19 "Hg (Aug 17, 5:00 AM)
Low45 °F (Aug 19, 5:03 AM)45% (Aug 25, 3:00 PM)29.74 "Hg (Aug 13, 5:00 AM)
Average63 °F82%29.98 "Hg
* Reported Aug 13 5:00 AM — Aug 28 5:00 AM, Waterloo, Weather by CustomWeather, © 2014

Note: Actual official high and low records may vary slightly from our data, if they occured in-between our weather recording intervals... More about our weather records

Advertising

Waterloo weather history for previous 24 hours

 ConditionsComfort  
Time TempWeatherWind HumidityBarometerVisibility
5:00 AM
Aug 28
48 °FClear.6 mph94%30.08 "Hg9 mi
4:00 AM48 °FClear.6 mph94%30.08 "Hg9 mi
3:00 AM48 °FClear.7 mph94%30.09 "Hg9 mi
2:00 AM50 °FClear.5 mph94%30.09 "Hg9 mi
1:00 AM50 °FClear.6 mph94%30.11 "Hg9 mi
12:00 AM52 °FClear.6 mph88%30.11 "Hg9 mi
11:00 PM
Aug 27
54 °FClear.5 mph88%30.10 "Hg9 mi
10:00 PM54 °FClear.3 mph88%30.09 "Hg9 mi
9:00 PM57 °FSunny.8 mph77%30.10 "Hg9 mi
8:00 PM61 °FSunny.7 mph72%30.09 "Hg9 mi
7:00 PM66 °FSunny.12 mph64%30.07 "Hg9 mi
6:00 PM68 °FSunny.12 mph64%30.06 "Hg9 mi
5:00 PM70 °FSunny.14 mph60%30.06 "Hg9 mi
4:00 PM70 °FPassing clouds.16 mph60%30.06 "Hg9 mi
3:00 PM72 °FPassing clouds.14 mph65%30.06 "Hg9 mi
2:00 PM70 °FScattered clouds.13 mph64%30.07 "Hg9 mi
1:00 PM68 °FPassing clouds.13 mph64%30.07 "Hg9 mi
12:00 PM70 °FSunny.9 mph60%30.08 "Hg9 mi
11:00 AM68 °FSunny.12 mph64%30.10 "Hg9 mi
10:00 AM66 °FSunny.9 mph64%30.09 "Hg9 mi
9:00 AM63 °FSunny.12 mph73%30.09 "Hg9 mi
8:00 AM61 °FSunny.7 mph83%30.09 "Hg9 mi
7:00 AM57 °FClear.6 mph88%30.07 "Hg9 mi
6:00 AM59 °FPassing clouds.7 mph82%30.06 "Hg9 mi
Weather by CustomWeather, © 2014

See weather overviewHow to use our weather pages